Theta_e
344 339 339 342 343 344 345 346 346 346 348 348 347 348 348 348 350 348 347 344 344 343 343 342 340 338 337 337 337 342 339 341 342
346 343 343 343 343 344 345 346 346 344 347 347 348 348 349 349 349 348 344 343 344 344 343 343 342 340 336 332 335 337 339 341 343
350 348 347 346 346 346 346 346 346 346 345 345 347 349 350 349 350 350 347 343 343 344 344 342 340 341 339 337 340 336 339 342 344
349 350 351 351 351 351 350 349 348 347 346 347 349 351 351 351 350 350 349 347 343 343 344 344 341 339 340 340 338 336 339 340 341
347 347 347 346 345 344 344 346 348 351 350 350 350 349 349 349 349 348 347 345 348 346 344 344 343 341 339 341 342 342 344 344 345
344 342 338 334 332 330 328 327 326 325 328 332 336 339 340 345 348 350 347 337 345 348 348 344 344 343 343 342 342 343 344 345 345
342 337 333 332 330 329 329 329 328 328 326 324 324 327 328 327 327 333 344 349 347 347 347 347 347 346 344 343 343 344 344 345 344
336 334 333 331 330 330 330 330 330 330 329 329 329 328 329 329 329 327 328 335 344 349 348 347 346 347 348 345 344 345 345 346 344
334 334 333 331 330 330 330 330 329 329 329 328 328 330 331 331 331 330 328 327 328 331 338 344 348 348 346 347 346 344 345 344 346
334 334 332 330 329 329 329 329 329 328 328 329 329 330 331 332 332 332 332 332 330 328 327 328 335 341 345 348 346 343 343 345 345
334 330 329 329 328 329 328 328 328 329 330 331 331 331 331 330 331 332 333 333 333 331 330 329 328 328 332 338 343 346 347 345 345
328 328 328 328 329 329 330 330 330 330 330 330 329 328 327 327 329 330 331 331 331 330 329 330 330 329 330 330 330 335 338 341 346
329 329 330 330 329 329 328 327 327 326 325 324 323 323 323 325 326 327 328 329 330 330 329 329 331 332 330 329 329 330 329 334 336
329 328 328 327 326 325 324 324 324 324 325 325 326 326 327 327 327 327 327 328 328 328 329 329 329 328 329 329 328 329 329 328 333
327 326 326 326 325 324 323 323 325 325 326 326 326 326 326 327 327 327 327 327 329 329 329 329 329 329 329 329 330 329 328 329 331
325 324 323 322 323 323 324 324 324 324 325 326 325 325 325 325 325 326 326 327 327 329 329 330 329 329 329 329 329 329 329 329 331
321 322 323 323 323 323 324 324 324 324 324 324 325 325 325 326 326 325 326 328 327 328 330 330 330 329 330 330 329 329 329 329 330
323 322 322 323 324 323 322 322 323 324 323 323 323 323 323 324 325 324 323 325 326 327 330 330 330 330 330 330 329 329 331 333 331
318 318 319 320 321 322 323 322 322 322 321 321 321 323 323 323 324 324 323 323 327 330 329 328 329 329 330 329 329 329 331 332 333
316 318 320 321 321 320 320 321 321 321 322 322 320 323 324 324 324 324 325 327 328 330 327 326 325 327 329 329 329 329 330 332 333
Wind_Speed
6 11 15 16 14 14 14 14 16 17 21 21 19 21 16 14 14 16 17 16 15 15 14 15 17 20 23 24 23 20 16 15 12
7 7 8 10 11 12 14 17 18 9 9 6 18 21 15 13 12 13 14 14 15 16 14 15 17 21 25 23 23 22 18 17 14
10 9 6 7 10 12 14 15 16 19 18 15 17 20 20 14 11 12 12 13 16 17 16 16 17 22 25 25 24 24 21 20 20
13 14 11 7 4 2 3 7 10 12 15 14 15 16 16 20 15 14 13 13 15 18 17 19 20 20 23 25 24 24 23 22 20
15 14 14 12 11 12 12 13 13 9 4 6 9 12 14 16 17 14 16 15 18 19 20 20 22 23 24 24 24 24 24 22 22
15 15 15 15 13 14 15 17 17 17 16 14 12 11 11 8 10 10 17 17 21 20 19 21 24 26 28 28 28 28 28 28 25
15 14 14 12 11 10 9 10 11 11 12 14 13 13 14 12 10 9 10 12 20 25 23 22 22 25 29 31 30 31 30 29 28
17 15 14 10 7 6 5 6 8 9 12 13 15 16 14 12 10 9 11 12 14 17 21 27 28 28 27 28 34 32 32 30 29
18 14 11 8 4 3 2 3 6 8 12 15 18 13 11 10 11 10 10 14 16 17 19 21 24 25 28 31 29 33 35 33 33
15 10 7 4 3 3 1 3 7 11 15 15 17 19 17 16 15 15 14 15 16 18 19 21 22 23 22 26 31 31 31 34 38
13 10 6 4 3 3 6 11 13 13 15 16 18 18 19 20 20 22 21 21 21 22 23 25 25 25 25 23 24 28 32 34 36
12 8 6 5 4 6 9 12 15 18 20 22 26 28 29 27 26 26 26 27 28 29 28 28 29 28 28 26 27 26 25 26 31
9 6 3 3 6 9 13 18 21 24 26 28 28 28 29 28 27 28 31 32 34 34 33 32 32 33 33 33 32 27 28 27 28
5 1 4 9 12 16 18 20 21 22 23 23 23 25 26 27 26 27 28 29 30 31 32 33 35 36 34 32 32 32 27 28 29
2 6 10 14 18 21 22 21 22 23 23 23 24 26 27 28 28 29 30 30 30 29 29 32 34 35 35 33 30 31 31 27 28
6 10 14 17 18 18 16 17 19 23 23 24 26 28 28 29 30 30 30 31 31 31 29 29 31 33 34 33 32 29 28 28 29
8 10 11 13 14 17 19 21 23 23 23 24 26 29 31 32 30 30 29 30 30 28 27 28 29 29 30 31 30 27 26 26 26
7 9 11 13 15 17 20 21 21 21 21 23 26 29 30 29 27 27 30 30 27 24 23 23 25 26 26 28 29 27 22 21 23
7 9 12 13 14 15 17 18 19 20 21 23 24 26 26 25 25 25 25 23 21 20 20 20 21 23 25 27 29 28 24 21 19
7 9 10 11 13 15 17 18 20 21 23 23 21 23 23 23 23 22 21 22 24 26 25 25 24 22 22 23 26 27 27 23 21
Wind_Direction
194 222 230 231 235 252 264 282 285 288 270 257 264 266 271 273 268 274 268 259 254 259 259 245 241 230 223 227 233 240 247 247 255
143 209 241 246 239 251 266 280 277 257 290 271 265 271 284 279 295 284 279 267 258 254 256 245 239 232 229 229 233 237 244 248 252
126 144 185 219 236 250 265 273 275 280 289 285 268 274 271 284 293 304 289 274 256 255 256 249 237 233 230 230 235 236 242 250 252
126 123 124 118 103 71 325 298 284 277 268 274 279 287 291 287 285 293 294 281 274 262 255 250 243 236 229 232 233 235 241 245 251
132 127 119 111 95 82 67 54 44 37 331 288 283 286 284 282 284 284 273 276 272 268 260 253 249 246 241 240 241 240 241 243 251
150 137 124 116 106 90 80 71 63 55 49 42 37 30 17 335 296 268 263 254 269 271 267 259 254 249 246 244 245 246 248 254 256
159 146 136 127 115 103 91 76 63 48 27 16 6 359 354 347 331 327 291 265 258 259 261 263 263 259 255 252 250 251 251 254 258
170 164 148 134 128 109 74 43 34 30 15 2 351 344 348 353 343 311 294 290 278 268 264 263 263 260 259 257 252 253 256 256 256
175 171 150 141 121 47 39 52 15 350 334 330 333 334 335 338 337 329 309 290 287 284 280 282 278 273 261 260 257 253 257 259 259
174 163 157 149 147 190 276 337 327 317 315 311 312 311 313 313 308 304 297 291 288 293 293 284 281 285 282 271 261 258 261 259 257
162 155 165 179 212 265 298 310 304 301 298 298 299 298 300 300 297 293 287 283 283 288 291 292 291 282 283 282 273 267 261 260 260
150 160 183 205 253 293 295 293 293 295 295 294 295 299 299 298 293 286 281 280 282 286 287 284 283 282 281 280 275 275 275 274 266
141 152 179 264 287 296 298 296 297 299 301 301 303 301 299 298 295 289 286 283 282 283 283 280 279 277 277 277 276 275 270 272 275
146 202 284 297 301 305 308 310 307 304 304 308 303 298 296 296 298 297 293 292 285 282 281 279 277 278 279 277 270 269 273 263 266
256 299 307 306 306 305 307 309 307 306 306 305 303 300 299 299 299 299 297 299 296 291 284 280 277 278 280 274 272 269 268 271 259
316 314 312 313 314 315 316 314 315 313 310 305 302 298 298 302 303 301 297 294 294 294 289 283 280 276 279 277 272 273 266 269 261
316 319 320 319 317 314 312 310 309 309 308 306 303 303 301 304 306 306 300 298 294 290 288 289 285 281 278 276 276 270 265 267 259
327 324 320 317 315 312 313 315 315 315 314 315 315 313 311 311 315 315 307 299 296 290 289 288 286 282 281 276 277 269 270 269 258
333 331 323 319 318 321 329 332 330 327 327 323 324 326 327 322 319 317 316 314 308 296 296 296 288 283 278 277 275 267 261 265 263
7 353 345 344 343 341 340 343 346 340 334 332 334 330 329 327 322 316 316 312 310 307 306 306 304 291 282 277 277 269 258 256 264